Wind_Speed
16 14 13 11 10 9 8 5 3 2 0 1 3 5 7 8 10 12 14 16 17 19 20 20 19 17 14 8 13 24 22 25 23 22 19 18 18 20 27 25 25 32 29 28 27 25 24
16 14 13 12 10 9 7 5 4 3 2 3 4 6 7 9 11 14 17 19 21 22 23 23 20 16 14 17 14 16 22 22 24 28 30 27 22 22 26 25 28 25 28 29 26 27 25
16 14 12 11 10 9 8 7 4 4 4 4 5 6 8 10 13 16 20 23 24 23 24 25 20 14 15 24 22 22 24 28 31 31 24 32 34 26 22 24 26 25 28 28 27 29 26
16 14 12 11 9 9 7 6 5 4 3 4 5 7 10 12 16 19 23 24 23 22 18 15 11 10 9 17 18 17 16 20 25 30 38 30 32 29 29 27 25 24 25 25 33 26 23
16 14 12 11 9 7 6 5 4 4 3 4 5 8 10 14 17 21 24 25 22 15 13 11 9 13 17 6 14 28 30 26 25 26 29 37 26 22 21 26 21 24 25 33 26 25 25
16 15 14 12 10 8 6 5 2 2 2 4 6 8 11 14 19 22 21 22 21 15 13 17 15 11 17 16 29 30 26 29 25 23 19 26 25 21 20 20 25 36 29 22 25 23 25
17 17 15 13 11 9 7 5 3 2 3 4 7 9 11 16 18 16 19 19 8 2 12 10 20 23 24 27 26 33 36 30 22 26 24 22 23 28 33 32 31 26 26 27 26 25 25
19 16 13 12 10 9 7 5 3 2 2 5 7 9 12 14 14 10 13 10 10 3 12 20 21 20 28 17 28 30 27 21 23 23 23 17 29 30 34 31 28 30 28 27 19 17 2
19 15 13 12 10 8 6 4 3 1 3 5 9 10 12 13 10 7 7 12 9 12 6 9 6 8 7 17 25 26 25 19 23 24 20 23 24 31 33 30 32 28 27 23 25 5 14
18 15 13 11 9 8 6 4 2 3 5 6 9 10 12 12 7 11 6 10 10 7 4 2 3 5 11 22 15 33 17 9 2 10 22 21 26 33 30 33 30 26 26 26 20 7 4
18 15 12 10 9 7 6 4 2 4 4 8 6 8 10 7 10 6 9 11 8 1 5 8 12 9 18 19 27 14 12 2 9 16 16 8 19 26 28 32 31 24 18 21 11 6 8
17 15 13 10 8 6 5 4 2 3 5 7 7 9 11 6 7 8 12 9 5 4 1 9 17 23 22 22 20 21 17 23 15 12 21 23 27 22 32 25 27 21 4 7 5 7 8
15 14 12 12 9 8 5 4 2 2 5 7 8 10 8 8 7 12 11 7 5 4 14 14 24 23 19 21 19 25 24 13 11 9 11 23 10 14 16 14 22 14 13 5 4 7 13
15 12 12 11 10 6 5 2 2 2 6 8 8 8 8 7 7 8 10 4 5 14 15 18 17 17 12 19 17 26 24 13 11 12 14 15 10 11 16 14 14 16 16 6 7 7 9
15 13 11 12 9 7 4 2 2 3 6 9 8 8 11 4 5 7 6 5 6 8 13 14 19 13 13 18 6 11 8 19 14 18 11 10 1 11 17 8 15 21 18 16 2 7 4
14 12 10 12 8 6 5 3 3 4 6 9 10 7 4 2 5 9 4 4 5 7 10 13 12 13 16 19 13 7 14 13 16 17 17 6 9 20 18 10 14 16 17 13 7 3 3
12 12 11 9 9 6 4 3 3 5 6 7 6 4 4 3 4 6 3 3 5 8 7 7 12 12 15 16 15 8 12 4 21 18 18 13 5 9 13 7 13 9 13 11 11 9 2
14 12 10 9 8 7 5 3 2 5 8 8 5 2 3 2 4 3 3 3 1 5 7 5 6 12 12 15 10 11 13 11 13 10 12 9 5 4 9 13 13 12 13 16 7 10 5
15 14 10 9 8 6 6 3 3 4 5 10 3 1 4 4 3 4 4 3 1 4 8 6 6 7 14 11 6 14 14 13 12 12 12 8 4 5 7 7 14 17 15 13 12 8 5
17 14 12 11 8 6 6 5 4 3 4 5 2 2 1 4 3 5 6 2 5 5 5 7 9 9 13 14 14 4 16 15 18 8 6 6 6 5 3 8 9 8 16 16 11 7 8
16 14 14 13 10 8 7 5 4 2 3 3 4 3 3 2 3 5 6 7 7 5 5 9 6 9 13 15 14 12 18 19 18 9 13 11 6 5 14 11 6 8 9 7 15 12 8
19 17 15 13 13 9 5 6 4 1 3 3 2 2 2 3 1 2 1 5 4 6 9 10 9 14 14 14 13 18 20 18 18 16 14 11 5 14 16 10 13 4 7 10 15 9 10
18 17 16 15 14 9 5 7 5 3 5 2 5 2 4 2 4 3 3 5 9 9 6 11 14 15 14 15 18 20 18 18 19 18 13 7 4 9 4 13 10 3 7 5 7 5 3
20 19 18 16 15 9 5 8 6 5 11 4 2 4 2 4 5 2 6 8 10 10 11 11 12 13 12 19 20 18 18 16 9 12 8 5 8 5 6 7 1 11 21 17 14 19 17
22 17 17 17 14 11 7 9 7 6 9 4 4 3 2 4 6 7 5 6 10 11 8 10 9 11 13 15 9 10 9 1 5 5 8 7 5 4 4 7 4 20 16 9 9 10 17
24 19 16 17 15 11 10 9 7 6 5 7 4 5 2 3 0 10 7 8 8 8 7 4 11 12 12 6 5 8 9 14 4 8 15 7 6 5 8 5 3 10 17 10 8 3 15
24 21 18 15 15 13 10 9 9 7 5 6 4 9 3 3 7 5 4 7 9 8 7 7 14 11 7 4 7 8 7 11 6 2 3 5 4 7 7 5 5 16 18 14 3 5 8
24 22 19 16 15 13 11 9 10 7 8 7 3 8 4 2 10 16 12 10 10 8 4 10 7 7 5 5 4 5 5 6 7 7 5 3 3 4 6 4 1 21 7 6 2 5 8
24 22 20 16 15 14 13 12 10 9 8 8 3 5 8 2 6 13 21 22 17 13 8 4 6 9 3 4 4 5 5 4 10 4 9 3 5 2 4 3 5 8 9 10 10 7 10
Wind_Direction
189 184 187 196 200 192 185 205 212 175 55 341 328 324 327 326 321 316 316 318 321 321 320 316 315 320 335 298 260 294 285 281 284 269 263 263 246 247 246 243 242 240 247 248 244 247 256
185 184 181 182 181 179 189 210 202 207 253 287 304 315 320 321 319 322 323 323 323 321 318 314 311 314 295 272 283 308 305 289 272 266 261 247 252 252 256 249 242 247 250 253 250 249 238
179 179 188 193 192 187 183 189 207 232 261 280 307 319 323 326 328 328 325 320 317 314 313 305 301 301 273 256 287 296 300 287 281 278 266 258 250 249 253 254 251 255 256 261 248 237 244
179 178 184 188 191 187 195 190 200 239 272 295 319 323 328 333 331 328 324 319 315 311 310 303 299 275 262 276 295 288 293 296 288 277 271 270 265 243 243 258 265 239 247 246 240 249 238
177 179 184 185 189 188 186 188 218 240 268 298 316 328 334 333 328 328 328 320 313 306 296 289 269 228 279 308 298 317 306 301 306 292 274 266 258 260 240 236 244 243 232 230 245 239 233
178 183 185 188 186 189 193 194 192 244 289 314 327 333 334 332 329 331 325 322 314 289 278 254 240 284 224 306 308 304 291 288 274 279 276 269 250 247 247 216 218 221 226 235 242 223 233
184 191 183 181 181 184 193 207 221 259 310 321 330 336 337 333 329 325 329 341 12 123 344 289 283 287 290 283 300 303 299 286 265 265 262 276 245 230 231 228 228 235 232 228 231 238 248
194 187 185 179 184 189 189 209 229 251 336 327 327 335 333 331 331 342 345 35 29 313 301 287 262 259 261 295 302 304 317 283 251 255 252 284 244 228 240 239 232 245 239 241 247 248 296
179 181 187 183 183 193 188 208 227 296 305 316 319 325 326 340 339 329 340 31 355 347 295 291 219 252 331 291 302 309 320 265 263 248 255 269 252 230 231 240 234 226 239 238 241 89 15
175 179 189 187 181 190 193 196 253 285 303 323 323 321 335 338 317 328 39 358 346 360 293 102 35 63 297 323 302 322 321 299 75 246 254 240 258 240 220 237 238 232 221 236 242 206 207
174 175 187 189 194 196 195 204 238 284 327 329 331 332 335 340 315 320 346 338 336 195 321 25 3 345 339 336 332 334 315 130 209 242 284 279 280 230 222 220 234 235 236 223 217 250 228
179 178 180 189 193 199 212 234 242 296 322 325 328 334 330 324 240 293 330 325 289 235 280 339 358 331 338 1 348 333 324 263 224 222 260 271 267 270 232 219 220 219 130 140 178 209 239
180 181 180 189 185 197 206 241 229 283 320 322 319 324 304 303 318 332 321 272 267 272 344 356 335 325 341 358 349 347 329 283 223 275 321 316 295 317 281 201 205 143 161 149 184 211 233
181 201 188 185 201 196 203 209 224 296 320 317 318 301 285 254 308 321 302 271 262 6 358 338 330 331 357 15 353 341 342 315 216 240 263 298 300 315 246 213 178 163 177 169 187 208 240
186 185 177 191 193 210 194 221 273 311 322 323 306 279 251 204 312 315 280 255 21 357 340 335 321 351 351 6 45 347 313 9 5 357 334 309 111 279 280 165 162 172 195 205 207 233 252
185 195 187 182 190 208 195 227 268 300 320 338 315 241 192 268 300 284 272 269 353 7 338 331 346 355 341 354 350 348 10 340 354 350 339 343 317 179 273 158 184 194 188 216 246 234 219
189 199 191 197 195 207 202 224 264 294 312 321 271 232 99 291 303 253 249 3 340 337 339 334 340 334 349 341 331 335 18 293 355 342 336 330 302 307 207 132 207 200 207 203 237 261 352
183 193 194 190 192 186 195 216 292 295 307 284 265 261 88 327 240 227 272 356 95 335 309 349 314 341 342 340 322 6 6 8 1 336 345 350 314 287 294 253 219 214 202 210 211 241 231
192 189 196 199 191 192 186 205 277 287 341 315 261 34 126 218 265 263 94 275 255 324 338 343 325 337 330 343 341 338 352 1 357 351 360 345 2 326 297 319 209 216 227 218 227 260 297
191 197 196 195 197 197 200 204 260 298 316 307 22 348 184 208 192 303 4 4 317 126 304 317 303 1 342 339 331 272 330 350 343 7 340 295 287 343 316 287 348 293 208 212 229 244 233
192 200 199 198 208 194 210 223 253 289 296 318 6 256 10 181 298 335 310 296 291 342 7 320 320 345 351 324 327 331 339 334 331 310 354 5 310 355 294 285 347 328 326 302 221 226 250
197 198 201 195 197 204 208 226 237 257 205 261 141 279 235 276 266 296 144 301 341 322 350 316 332 339 319 311 338 325 323 315 312 304 332 338 309 315 298 280 160 200 278 349 317 350 305
196 200 198 200 198 203 207 222 226 221 190 302 304 299 280 277 243 272 23 340 322 320 303 320 330 316 315 332 326 304 286 272 264 281 292 315 314 320 324 359 354 359 1 229 247 124 311
196 197 195 199 197 202 220 207 222 217 211 321 324 316 309 280 269 324 329 327 316 323 313 308 302 308 330 331 310 306 283 267 264 237 252 265 310 298 300 294 53 50 15 13 359 44 33
195 197 193 190 195 200 215 204 212 232 226 252 298 272 283 282 299 296 306 330 325 313 323 314 335 333 334 319 327 326 331 357 316 219 214 219 282 294 314 321 271 33 4 8 21 46 5
195 195 191 195 197 198 209 198 207 221 223 215 304 342 309 319 284 342 336 320 313 335 327 348 352 341 308 326 317 308 311 308 32 360 331 321 231 267 303 309 3 7 344 1 309 74 342
196 196 192 196 201 202 205 203 204 213 202 204 254 259 322 288 278 325 344 319 331 333 310 337 345 323 348 326 300 310 322 346 10 29 340 330 311 269 283 264 112 354 338 310 286 13 353
198 196 193 198 197 202 202 203 205 213 203 201 210 186 178 239 283 293 303 292 307 314 326 328 327 8 319 331 318 349 338 344 334 360 357 73 352 2 318 318 162 358 14 40 338 23 17
200 197 194 195 193 202 204 202 204 210 208 209 241 183 232 196 290 303 286 276 273 286 305 306 321 318 319 325 359 331 316 303 322 352 329 60 45 353 37 43 42 25 32 24 22 39 36
Height
805 805 809 811 812 812 812 812 811 811 812 810 808 807 805 805 803 801 799 796 793 791 788 786 785 784 781 773 758 751 750 750 749 748 746 740 736 736 730 725 720 711 710 704 700 701 698
802 804 807 809 810 810 811 811 811 810 810 809 807 806 804 802 801 798 795 791 788 785 783 782 782 782 783 774 752 750 749 746 745 742 738 737 730 725 721 716 714 705 703 697 695 692 692
800 802 806 808 808 809 809 809 811 810 809 807 806 804 803 800 797 794 790 786 783 781 779 776 777 780 777 761 754 752 749 744 742 740 731 732 729 726 716 714 702 702 707 695 686 683 690
797 799 803 807 808 808 808 807 808 809 808 807 804 803 801 797 794 791 786 781 778 777 775 772 773 777 764 752 752 748 746 741 738 735 731 725 721 714 712 709 702 705 704 703 672 682 683
795 797 800 804 807 808 807 808 807 808 806 805 803 800 798 796 793 788 783 777 772 772 773 770 771 769 755 746 745 743 741 734 734 731 727 724 719 712 708 709 713 702 694 684 690 679 683
791 796 799 802 804 806 807 807 806 806 805 804 802 799 796 793 791 787 780 772 765 766 767 763 763 765 747 745 743 737 736 734 729 729 725 724 719 717 708 697 698 677 683 685 681 673 672
791 797 797 799 800 804 806 806 805 805 804 802 800 797 795 792 789 787 779 767 769 763 767 768 762 756 752 744 738 732 731 725 724 721 720 727 715 703 700 683 669 679 681 677 669 664 666
794 797 798 797 800 802 802 804 805 802 800 800 800 797 794 791 788 785 778 777 782 787 776 761 757 752 744 739 730 718 721 719 713 715 715 730 703 690 692 686 691 680 680 673 659 655 670
790 793 798 798 798 801 800 803 802 800 798 798 799 796 794 789 786 783 781 781 783 783 779 751 739 736 738 737 721 708 712 704 704 710 716 732 696 682 688 685 680 676 678 672 669 679 701
787 790 796 797 796 800 798 800 800 799 798 796 796 796 792 789 788 784 781 781 783 784 778 733 734 733 733 722 709 707 704 701 719 723 721 709 690 678 680 683 669 669 662 667 667 682 725
783 787 793 795 796 797 797 797 797 798 795 795 793 793 791 789 789 783 785 783 783 786 748 731 731 730 724 725 720 699 703 711 714 719 715 702 686 667 665 667 659 660 653 660 669 691 712
785 785 788 793 794 796 797 797 793 796 796 794 793 791 790 787 788 785 784 783 783 778 742 732 731 730 722 719 718 711 703 699 695 708 703 697 677 665 648 641 647 647 662 670 683 696 714
785 787 786 791 791 793 794 795 791 793 795 793 792 791 790 790 786 785 782 779 775 749 730 735 739 729 721 723 718 710 701 686 692 694 694 672 660 651 636 642 643 653 673 703 717 711 702
783 789 786 788 792 791 793 792 792 791 792 792 790 789 788 788 788 785 782 773 762 740 743 743 737 726 727 723 722 717 703 680 675 683 679 677 691 667 642 640 648 664 673 694 702 703 691
783 785 785 788 789 791 790 791 792 791 791 789 788 786 787 787 786 784 780 764 752 756 753 748 736 732 729 724 739 738 738 715 702 700 700 686 665 662 647 637 647 667 677 669 681 681 681
782 784 785 786 787 790 789 790 791 792 790 787 788 782 782 784 783 783 774 767 753 752 754 748 744 740 737 731 729 740 732 730 718 709 698 693 687 661 663 642 649 657 663 684 680 688 687
779 783 785 786 786 788 788 790 789 792 791 787 786 776 782 782 783 778 774 756 755 756 754 751 749 747 743 737 729 729 727 723 715 709 698 689 689 672 648 669 667 667 666 669 669 667 678
778 782 784 785 786 787 788 789 788 790 790 786 778 773 780 779 781 770 760 760 765 753 749 749 748 747 743 736 736 725 722 719 714 719 709 701 700 691 662 644 642 647 657 661 677 677 666
779 780 782 784 785 787 786 788 789 791 788 786 771 769 777 777 774 755 754 754 752 754 751 752 749 746 741 737 742 740 721 716 713 712 718 712 706 701 678 661 646 654 651 652 659 660 679
775 778 779 783 785 786 788 788 791 787 787 787 781 782 769 768 770 768 760 755 754 751 754 751 748 748 744 741 731 746 725 717 713 712 714 710 705 712 703 696 689 660 648 650 660 672 673
772 776 779 782 784 785 789 788 789 786 787 789 784 780 772 772 767 769 765 760 755 753 751 748 749 749 749 749 738 732 727 722 717 714 709 710 709 707 692 684 706 692 680 662 661 662 670
771 775 778 780 784 785 786 788 788 786 788 788 792 779 769 765 770 769 771 755 755 755 757 755 754 754 753 748 742 740 736 732 726 715 713 711 714 703 685 668 673 692 689 685 683 673 672
767 773 776 781 783 784 783 787 786 787 789 787 785 780 778 772 762 762 759 762 760 760 758 755 755 756 751 743 743 738 733 727 721 720 715 715 720 706 684 671 669 675 668 665 660 659 666
767 771 775 777 782 781 783 785 786 787 789 791 788 787 783 777 763 759 759 760 759 757 760 758 755 752 746 744 736 724 711 702 701 708 707 715 713 707 698 685 688 686 682 680 673 681 685
765 768 772 775 778 780 782 785 786 787 789 790 790 789 784 781 766 762 760 759 758 755 754 752 751 751 749 744 736 723 709 708 705 701 704 707 712 711 703 694 680 703 703 705 705 711 711
762 766 769 774 777 778 782 783 785 788 789 790 792 791 789 787 771 767 764 762 762 759 755 753 754 751 748 745 745 737 728 713 709 723 716 705 707 711 706 705 700 722 708 704 703 722 743
759 764 768 772 775 777 781 783 785 788 789 791 792 793 794 790 775 771 772 774 765 764 762 755 759 753 747 749 748 731 723 713 717 730 728 715 714 714 706 705 721 736 717 703 708 741 746
757 762 766 770 773 776 779 782 785 788 789 791 792 793 796 796 783 778 775 775 773 770 775 769 763 767 755 754 744 740 734 726 722 717 721 730 731 740 729 712 722 748 724 734 751 751 749
754 759 764 768 771 775 779 781 785 787 788 791 792 792 795 796 788 783 779 777 776 774 773 771 771 771 762 764 757 752 747 737 730 728 730 734 735 740 748 752 764 763 761 760 754 749 748